Year,Month,Day,Hour,Minute,Value (Times are PST for temperature in C)
2004,08,19,00,00,18.10
2004,08,19,00,01,17.90
2004,08,19,00,02,17.80
2004,08,19,00,03,17.70
2004,08,19,00,04,17.60
2004,08,19,00,05,17.50
2004,08,19,00,06,17.30
2004,08,19,00,07,17.10
2004,08,19,00,08,17.00
2004,08,19,00,09,17.00
2004,08,19,00,10,16.90
2004,08,19,00,11,16.70
2004,08,19,00,12,16.60
2004,08,19,00,13,16.60
2004,08,19,00,14,16.50
2004,08,19,00,15,16.40
2004,08,19,00,16,16.40
2004,08,19,00,17,16.30
2004,08,19,00,18,16.30
2004,08,19,00,19,16.20
2004,08,19,00,20,16.20
2004,08,19,00,21,16.20
2004,08,19,00,22,16.10
2004,08,19,00,23,16.10
2004,08,19,00,24,16.10
2004,08,19,00,25,16.10
2004,08,19,00,26,16.10
2004,08,19,00,27,16.10
2004,08,19,00,28,16.10
2004,08,19,00,29,16.10
2004,08,19,00,30,16.10
2004,08,19,00,31,16.10
2004,08,19,00,32,16.10
2004,08,19,00,33,16.10
2004,08,19,00,34,15.90
2004,08,19,00,35,15.90
2004,08,19,00,36,15.90
2004,08,19,00,37,15.90
2004,08,19,00,38,15.90
2004,08,19,00,39,15.80
2004,08,19,00,40,15.80
2004,08,19,00,41,15.80
2004,08,19,00,42,15.80
2004,08,19,00,43,15.80
2004,08,19,00,44,15.80
2004,08,19,00,45,15.80
2004,08,19,00,46,15.70
2004,08,19,00,47,15.70
2004,08,19,00,48,15.60
2004,08,19,00,49,15.60
2004,08,19,00,50,15.60
2004,08,19,00,51,15.50
2004,08,19,00,52,15.50
2004,08,19,00,53,15.50
2004,08,19,00,54,15.50
2004,08,19,00,55,15.50
2004,08,19,00,56,15.50
2004,08,19,00,57,15.40
2004,08,19,00,58,15.40
2004,08,19,00,59,15.40
2004,08,19,01,00,15.30
2004,08,19,01,01,15.30
2004,08,19,01,02,15.30
2004,08,19,01,03,15.30
2004,08,19,01,04,15.30
2004,08,19,01,05,15.20
2004,08,19,01,06,15.20
2004,08,19,01,07,15.20
2004,08,19,01,08,15.10
2004,08,19,01,09,15.10
2004,08,19,01,10,15.00
2004,08,19,01,11,15.00
2004,08,19,01,12,14.90
2004,08,19,01,13,14.90
2004,08,19,01,14,14.90
2004,08,19,01,15,14.90
2004,08,19,01,16,14.80
2004,08,19,01,17,14.80
2004,08,19,01,18,14.80
2004,08,19,01,19,14.80
2004,08,19,01,20,14.80
2004,08,19,01,21,14.80
2004,08,19,01,22,14.80
2004,08,19,01,23,14.80
2004,08,19,01,24,14.80
2004,08,19,01,25,14.80
2004,08,19,01,26,14.80
2004,08,19,01,27,14.80
2004,08,19,01,28,14.70
2004,08,19,01,29,14.70
2004,08,19,01,30,14.70
2004,08,19,01,31,14.70
2004,08,19,01,32,14.70
2004,08,19,01,33,14.70
2004,08,19,01,34,14.70
2004,08,19,01,35,14.60
2004,08,19,01,36,14.60
2004,08,19,01,37,14.60
2004,08,19,01,38,14.60
2004,08,19,01,39,14.60
2004,08,19,01,40,14.60
2004,08,19,01,41,14.60
2004,08,19,01,42,14.60
2004,08,19,01,43,14.60
2004,08,19,01,44,14.60
2004,08,19,01,45,14.60
2004,08,19,01,46,14.60
2004,08,19,01,47,14.50
2004,08,19,01,48,14.50
2004,08,19,01,49,14.50
2004,08,19,01,50,14.50
2004,08,19,01,51,14.50
2004,08,19,01,52,14.50
2004,08,19,01,53,14.50
2004,08,19,01,54,14.40
2004,08,19,01,55,14.40
2004,08,19,01,56,14.40
2004,08,19,01,57,14.40
2004,08,19,01,58,14.40
2004,08,19,01,59,14.40
2004,08,19,02,00,14.40
2004,08,19,02,01,14.40
2004,08,19,02,02,14.40
2004,08,19,02,03,14.30
2004,08,19,02,04,14.30
2004,08,19,02,05,14.30
2004,08,19,02,06,14.30
2004,08,19,02,07,14.30
2004,08,19,02,08,14.30
2004,08,19,02,09,14.30
2004,08,19,02,10,14.30
2004,08,19,02,11,14.30
2004,08,19,02,12,14.30
2004,08,19,02,13,14.40
2004,08,19,02,14,14.40
2004,08,19,02,15,14.40
2004,08,19,02,16,14.50
2004,08,19,02,17,14.40
2004,08,19,02,18,14.40
2004,08,19,02,19,14.40
2004,08,19,02,20,14.40
2004,08,19,02,21,14.50
2004,08,19,02,22,14.50
2004,08,19,02,23,14.50
2004,08,19,02,24,14.50
2004,08,19,02,25,14.50
2004,08,19,02,26,14.50
2004,08,19,02,27,14.50
2004,08,19,02,28,14.50
2004,08,19,02,29,14.60
2004,08,19,02,30,14.60
2004,08,19,02,31,14.60
2004,08,19,02,32,14.60
2004,08,19,02,33,14.60
2004,08,19,02,34,14.60
2004,08,19,02,35,14.60
2004,08,19,02,36,14.60
2004,08,19,02,37,14.50
2004,08,19,02,38,14.50
2004,08,19,02,39,14.50
2004,08,19,02,40,14.50
2004,08,19,02,41,14.40
2004,08,19,02,42,14.40
2004,08,19,02,43,14.40
2004,08,19,02,44,14.40
2004,08,19,02,45,14.40
2004,08,19,02,46,14.40
2004,08,19,02,47,14.50
2004,08,19,02,48,14.50
2004,08,19,02,49,14.50
2004,08,19,02,50,14.50
2004,08,19,02,51,14.50
2004,08,19,02,52,14.50
2004,08,19,02,53,14.50
2004,08,19,02,54,14.50
2004,08,19,02,55,14.50
2004,08,19,02,56,14.40
2004,08,19,02,57,14.40
2004,08,19,02,58,14.40
2004,08,19,02,59,14.40
2004,08,19,03,00,14.40
2004,08,19,03,01,14.30
2004,08,19,03,02,14.30
2004,08,19,03,03,14.30
2004,08,19,03,04,14.30
2004,08,19,03,05,14.30
2004,08,19,03,06,14.30
2004,08,19,03,07,14.30
2004,08,19,03,08,14.30
2004,08,19,03,09,14.40
2004,08,19,03,10,14.40
2004,08,19,03,11,14.40
2004,08,19,03,12,14.40
2004,08,19,03,13,14.40
2004,08,19,03,14,14.40
2004,08,19,03,15,14.40
2004,08,19,03,16,14.40
2004,08,19,03,17,14.40
2004,08,19,03,18,14.40
2004,08,19,03,19,14.40
2004,08,19,03,20,14.30
2004,08,19,03,21,14.30
2004,08,19,03,22,14.20
2004,08,19,03,23,14.20
2004,08,19,03,24,14.20
2004,08,19,03,25,14.20
2004,08,19,03,26,14.10
2004,08,19,03,27,14.10
2004,08,19,03,28,14.10
2004,08,19,03,29,14.00
2004,08,19,03,30,14.00
2004,08,19,03,31,14.00
2004,08,19,03,32,14.00
2004,08,19,03,33,13.90
2004,08,19,03,34,13.90
2004,08,19,03,35,13.90
2004,08,19,03,36,13.90
2004,08,19,03,37,14.00
2004,08,19,03,38,14.00
2004,08,19,03,39,14.10
2004,08,19,03,40,14.10
2004,08,19,03,41,14.10
2004,08,19,03,42,14.10
2004,08,19,03,43,14.20
2004,08,19,03,44,14.20
2004,08,19,03,45,14.20
2004,08,19,03,46,14.20
2004,08,19,03,47,14.30
2004,08,19,03,48,14.40
2004,08,19,03,49,14.50
2004,08,19,03,50,14.60
2004,08,19,03,51,14.70
2004,08,19,03,52,14.70
2004,08,19,03,53,14.70
2004,08,19,03,54,14.70
2004,08,19,03,55,14.70
2004,08,19,03,56,14.80
2004,08,19,03,57,14.80
2004,08,19,03,58,14.80
2004,08,19,03,59,14.90
2004,08,19,04,00,14.90
2004,08,19,04,01,15.00
2004,08,19,04,02,15.00
2004,08,19,04,03,15.10
2004,08,19,04,04,15.10
2004,08,19,04,05,15.20
2004,08,19,04,06,15.20
2004,08,19,04,07,15.30
2004,08,19,04,08,15.30
2004,08,19,04,09,15.30
2004,08,19,04,10,15.30
2004,08,19,04,11,15.30
2004,08,19,04,12,15.30
2004,08,19,04,13,15.30
2004,08,19,04,14,15.40
2004,08,19,04,15,15.40
2004,08,19,04,16,15.40
2004,08,19,04,17,15.50
2004,08,19,04,18,15.50
2004,08,19,04,19,15.50
2004,08,19,04,20,15.60
2004,08,19,04,21,15.60
2004,08,19,04,22,15.60
2004,08,19,04,23,15.50
2004,08,19,04,24,15.50
2004,08,19,04,25,15.50
2004,08,19,04,26,15.60
2004,08,19,04,27,15.60
2004,08,19,04,28,15.60
2004,08,19,04,29,15.60
2004,08,19,04,30,15.70
2004,08,19,04,31,15.70
2004,08,19,04,32,15.70
2004,08,19,04,33,15.70
2004,08,19,04,34,15.70
2004,08,19,04,35,15.70
2004,08,19,04,36,15.70
2004,08,19,04,37,15.60
2004,08,19,04,38,15.60
2004,08,19,04,39,15.60
2004,08,19,04,40,15.60
2004,08,19,04,41,15.60
2004,08,19,04,42,15.50
2004,08,19,04,43,15.50
2004,08,19,04,44,15.50
2004,08,19,04,45,15.50
2004,08,19,04,46,15.50
2004,08,19,04,47,15.60
2004,08,19,04,48,15.60
2004,08,19,04,49,15.60
2004,08,19,04,50,15.60
2004,08,19,04,51,15.60
2004,08,19,04,52,15.60
2004,08,19,04,53,15.60
2004,08,19,04,54,15.50
2004,08,19,04,55,15.50
2004,08,19,04,56,15.50
2004,08,19,04,57,15.60
2004,08,19,04,58,15.50
2004,08,19,04,59,15.50
2004,08,19,05,00,15.50
2004,08,19,05,01,15.40
2004,08,19,05,02,15.40
2004,08,19,05,03,15.30
2004,08,19,05,04,15.30
2004,08,19,05,05,15.20
2004,08,19,05,06,15.20
2004,08,19,05,07,15.20
2004,08,19,05,08,15.10
2004,08,19,05,09,15.20
2004,08,19,05,10,15.30
2004,08,19,05,11,15.30
2004,08,19,05,12,15.30
2004,08,19,05,13,15.40
2004,08,19,05,14,15.50
2004,08,19,05,15,15.50
2004,08,19,05,16,15.50
2004,08,19,05,17,15.50
2004,08,19,05,18,15.50
2004,08,19,05,19,15.50
2004,08,19,05,20,15.40
2004,08,19,05,21,15.30
2004,08,19,05,22,15.30
2004,08,19,05,23,15.30
2004,08,19,05,24,15.40
2004,08,19,05,25,15.40
2004,08,19,05,26,15.40
2004,08,19,05,27,15.40
2004,08,19,05,28,15.40
2004,08,19,05,29,15.50
2004,08,19,05,30,15.50
2004,08,19,05,31,15.50
2004,08,19,05,32,15.60
2004,08,19,05,33,15.60
2004,08,19,05,34,15.50
2004,08,19,05,35,15.50
2004,08,19,05,36,15.50
2004,08,19,05,37,15.40
2004,08,19,05,38,15.40
2004,08,19,05,39,15.40
2004,08,19,05,40,15.40
2004,08,19,05,41,15.40
2004,08,19,05,42,15.40
2004,08,19,05,43,15.40
2004,08,19,05,44,15.40
2004,08,19,05,45,15.40
2004,08,19,05,46,15.30
2004,08,19,05,47,15.30
2004,08,19,05,48,15.30
2004,08,19,05,49,15.30
2004,08,19,05,50,15.30
2004,08,19,05,51,15.30
2004,08,19,05,52,15.30
2004,08,19,05,53,15.30
2004,08,19,05,54,15.30
2004,08,19,05,55,15.30
2004,08,19,05,56,15.20
2004,08,19,05,57,15.30
2004,08,19,05,58,15.30
2004,08,19,05,59,15.20
2004,08,19,06,00,15.20
2004,08,19,06,01,15.20
2004,08,19,06,02,15.10
2004,08,19,06,03,15.20
2004,08,19,06,04,15.20
2004,08,19,06,05,15.20
2004,08,19,06,06,15.20
2004,08,19,06,07,15.10
2004,08,19,06,08,15.10
2004,08,19,06,09,15.10
2004,08,19,06,10,15.10
2004,08,19,06,11,15.10
2004,08,19,06,12,15.00
2004,08,19,06,13,15.00
2004,08,19,06,14,15.00
2004,08,19,06,15,14.90
2004,08,19,06,16,14.90
2004,08,19,06,17,14.80
2004,08,19,06,18,14.80
2004,08,19,06,19,14.80
2004,08,19,06,20,14.80
2004,08,19,06,21,14.80
2004,08,19,06,22,14.80
2004,08,19,06,23,14.80
2004,08,19,06,24,14.80
2004,08,19,06,25,14.70
2004,08,19,06,26,14.70
2004,08,19,06,27,14.70
2004,08,19,06,28,14.70
2004,08,19,06,29,14.80
2004,08,19,06,30,14.80
2004,08,19,06,31,14.80
2004,08,19,06,32,14.80
2004,08,19,06,33,14.90
2004,08,19,06,34,15.00
2004,08,19,06,35,15.10
2004,08,19,06,36,15.10
2004,08,19,06,37,15.20
2004,08,19,06,38,15.30
2004,08,19,06,39,15.30
2004,08,19,06,40,15.40
2004,08,19,06,41,15.40
2004,08,19,06,42,15.50
2004,08,19,06,43,15.50
2004,08,19,06,44,15.50
2004,08,19,06,45,15.50
2004,08,19,06,46,15.60
2004,08,19,06,47,15.60
2004,08,19,06,48,15.70
2004,08,19,06,49,15.70
2004,08,19,06,50,15.70
2004,08,19,06,51,15.60
2004,08,19,06,52,15.60
2004,08,19,06,53,15.50
2004,08,19,06,54,15.50
2004,08,19,06,55,15.40
2004,08,19,06,56,15.40
2004,08,19,06,57,15.40
2004,08,19,06,58,15.50
2004,08,19,06,59,15.50
2004,08,19,07,00,15.50
2004,08,19,07,01,15.60
2004,08,19,07,02,15.60
2004,08,19,07,03,15.70
2004,08,19,07,04,15.80
2004,08,19,07,05,15.80
2004,08,19,07,06,15.80
2004,08,19,07,07,15.80
2004,08,19,07,08,15.80
2004,08,19,07,09,15.80
2004,08,19,07,10,15.80
2004,08,19,07,11,15.80
2004,08,19,07,12,15.80
2004,08,19,07,13,15.70
2004,08,19,07,14,15.60
2004,08,19,07,15,15.50
2004,08,19,07,16,15.50
2004,08,19,07,17,15.50
2004,08,19,07,18,15.50
2004,08,19,07,19,15.50
2004,08,19,07,20,15.60
2004,08,19,07,21,15.60
2004,08,19,07,22,15.60
2004,08,19,07,23,15.60
2004,08,19,07,24,15.60
2004,08,19,07,25,15.70
2004,08,19,07,26,15.80
2004,08,19,07,27,16.00
2004,08,19,07,28,16.10
2004,08,19,07,29,16.20
2004,08,19,07,30,16.30
2004,08,19,07,31,16.50
2004,08,19,07,32,16.60
2004,08,19,07,33,16.70
2004,08,19,07,34,16.90
2004,08,19,07,35,17.00
2004,08,19,07,36,17.00
2004,08,19,07,37,17.00
2004,08,19,07,38,17.10
2004,08,19,07,39,17.20
2004,08,19,07,40,17.20
2004,08,19,07,41,17.30
2004,08,19,07,42,17.40
2004,08,19,07,43,17.50
2004,08,19,07,44,17.50
2004,08,19,07,45,17.50
2004,08,19,07,46,17.60
2004,08,19,07,47,17.70
2004,08,19,07,48,17.70
2004,08,19,07,49,17.80
2004,08,19,07,50,17.90
2004,08,19,07,51,17.90
2004,08,19,07,52,17.90
2004,08,19,07,53,18.00
2004,08,19,07,54,18.10
2004,08,19,07,55,18.20
2004,08,19,07,56,18.30
2004,08,19,07,57,18.30
2004,08,19,07,58,18.40
2004,08,19,07,59,18.50
2004,08,19,08,00,18.60
2004,08,19,08,01,18.70
2004,08,19,08,02,18.80
2004,08,19,08,03,18.90
2004,08,19,08,04,18.90
2004,08,19,08,05,19.10
2004,08,19,08,06,19.30
2004,08,19,08,07,19.30
2004,08,19,08,08,19.40
2004,08,19,08,09,19.50
2004,08,19,08,10,19.60
2004,08,19,08,11,19.70
2004,08,19,08,12,19.80
2004,08,19,08,13,19.80
2004,08,19,08,14,19.80
2004,08,19,08,15,19.90
2004,08,19,08,16,20.00
2004,08,19,08,17,20.10
2004,08,19,08,18,20.30
2004,08,19,08,19,20.50
2004,08,19,08,20,20.50
2004,08,19,08,21,20.70
2004,08,19,08,22,20.80
2004,08,19,08,23,20.90
2004,08,19,08,24,21.00
2004,08,19,08,25,21.10
2004,08,19,08,26,21.20
2004,08,19,08,27,21.30
2004,08,19,08,28,21.30
2004,08,19,08,29,21.50
2004,08,19,08,30,21.60
2004,08,19,08,31,21.60
2004,08,19,08,32,21.80
2004,08,19,08,33,21.90
2004,08,19,08,34,21.90
2004,08,19,08,35,21.90
2004,08,19,08,36,21.90
2004,08,19,08,37,22.00
2004,08,19,08,38,22.00
2004,08,19,08,39,22.00
2004,08,19,08,40,22.10
2004,08,19,08,41,22.10
2004,08,19,08,42,22.20
2004,08,19,08,43,22.20
2004,08,19,08,44,22.30
2004,08,19,08,45,22.20
2004,08,19,08,46,22.00
2004,08,19,08,47,21.90
2004,08,19,08,48,21.90
2004,08,19,08,49,21.90
2004,08,19,08,50,21.80
2004,08,19,08,51,21.70
2004,08,19,08,52,21.60
2004,08,19,08,53,21.50
2004,08,19,08,54,21.40
2004,08,19,08,55,21.20
2004,08,19,08,56,21.10
2004,08,19,08,57,21.10
2004,08,19,08,58,21.10
2004,08,19,08,59,21.10
2004,08,19,09,00,21.20
2004,08,19,09,01,21.10
2004,08,19,09,02,21.00
2004,08,19,09,03,21.00
2004,08,19,09,04,21.00
2004,08,19,09,05,21.10
2004,08,19,09,06,21.10
2004,08,19,09,07,21.10
2004,08,19,09,08,21.10
2004,08,19,09,09,21.10
2004,08,19,09,10,21.10
2004,08,19,09,11,21.00
2004,08,19,09,12,21.00
2004,08,19,09,13,21.00
2004,08,19,09,14,21.10
2004,08,19,09,15,21.10
2004,08,19,09,16,21.20
2004,08,19,09,17,21.20
2004,08,19,09,18,21.30
2004,08,19,09,19,21.30
2004,08,19,09,20,21.40
2004,08,19,09,21,21.30
2004,08,19,09,22,21.30
2004,08,19,09,23,21.30
2004,08,19,09,24,21.10
2004,08,19,09,25,21.00
2004,08,19,09,26,20.90
2004,08,19,09,27,20.90
2004,08,19,09,28,21.00
2004,08,19,09,29,21.00
2004,08,19,09,30,21.00
2004,08,19,09,31,21.10
2004,08,19,09,32,21.10
2004,08,19,09,33,21.20
2004,08,19,09,34,21.30
2004,08,19,09,35,21.30
2004,08,19,09,36,21.30
2004,08,19,09,37,21.30
2004,08,19,09,38,21.30
2004,08,19,09,39,21.30
2004,08,19,09,40,21.30
2004,08,19,09,41,21.20
2004,08,19,09,42,21.10
2004,08,19,09,43,21.10
2004,08,19,09,44,21.00
2004,08,19,09,45,20.90
2004,08,19,09,46,20.90
2004,08,19,09,47,20.80
2004,08,19,09,48,20.90
2004,08,19,09,49,20.90
2004,08,19,09,50,20.80
2004,08,19,09,51,20.80
2004,08,19,09,52,20.90
2004,08,19,09,53,21.00
2004,08,19,09,54,21.00
2004,08,19,09,55,21.10
2004,08,19,09,56,21.00
2004,08,19,09,57,21.00
2004,08,19,09,58,21.10
2004,08,19,09,59,21.20
2004,08,19,10,00,21.30
2004,08,19,10,01,21.30
2004,08,19,10,02,21.20
2004,08,19,10,03,21.20
2004,08,19,10,04,21.20
2004,08,19,10,05,21.20
2004,08,19,10,06,21.20
2004,08,19,10,07,21.30
2004,08,19,10,08,21.40
2004,08,19,10,09,21.40
2004,08,19,10,10,21.50
2004,08,19,10,11,21.50
2004,08,19,10,12,21.50
2004,08,19,10,13,21.50
2004,08,19,10,14,21.60
2004,08,19,10,15,21.70
2004,08,19,10,16,21.80
2004,08,19,10,17,21.80
2004,08,19,10,18,21.80
2004,08,19,10,19,21.80
2004,08,19,10,20,21.70
2004,08,19,10,21,21.60
2004,08,19,10,22,21.60
2004,08,19,10,23,21.70
2004,08,19,10,24,21.70
2004,08,19,10,25,21.60
2004,08,19,10,26,21.60
2004,08,19,10,27,21.70
2004,08,19,10,28,21.70
2004,08,19,10,29,21.80
2004,08,19,10,30,21.80
2004,08,19,10,31,21.90
2004,08,19,10,32,21.90
2004,08,19,10,33,21.90
2004,08,19,10,34,21.90
2004,08,19,10,35,21.80
2004,08,19,10,36,21.70
2004,08,19,10,37,21.70
2004,08,19,10,38,21.80
2004,08,19,10,39,21.90
2004,08,19,10,40,22.00
2004,08,19,10,41,22.00
2004,08,19,10,42,22.00
2004,08,19,10,43,22.00
2004,08,19,10,44,22.00
2004,08,19,10,45,22.00
2004,08,19,10,46,22.00
2004,08,19,10,47,22.00
2004,08,19,10,48,22.10
2004,08,19,10,49,22.20
2004,08,19,10,50,22.20
2004,08,19,10,51,22.30
2004,08,19,10,52,22.30
2004,08,19,10,53,22.40
2004,08,19,10,54,22.40
2004,08,19,10,55,22.50
2004,08,19,10,56,22.50
2004,08,19,10,57,22.50
2004,08,19,10,58,22.60
2004,08,19,10,59,22.60
2004,08,19,11,00,22.60
2004,08,19,11,01,22.70
2004,08,19,11,02,22.70
2004,08,19,11,03,22.60
2004,08,19,11,04,22.60
2004,08,19,11,05,22.60
2004,08,19,11,06,22.50
2004,08,19,11,07,22.40
2004,08,19,11,08,22.40
2004,08,19,11,09,22.30
2004,08,19,11,10,22.30
2004,08,19,11,11,22.40
2004,08,19,11,12,22.50
2004,08,19,11,13,22.60
2004,08,19,11,14,22.60
2004,08,19,11,15,22.80
2004,08,19,11,16,22.90
2004,08,19,11,17,22.90
2004,08,19,11,18,23.00
2004,08,19,11,19,23.10
2004,08,19,11,20,23.20
2004,08,19,11,21,23.20
2004,08,19,11,22,23.30
2004,08,19,11,23,23.40
2004,08,19,11,24,23.20
2004,08,19,11,25,22.90
2004,08,19,11,26,22.80
2004,08,19,11,27,22.70
2004,08,19,11,28,22.90
2004,08,19,11,29,22.90
2004,08,19,11,30,22.90
2004,08,19,11,31,22.90
2004,08,19,11,32,23.00
2004,08,19,11,33,22.90
2004,08,19,11,34,22.70
2004,08,19,11,35,22.70
2004,08,19,11,36,22.70
2004,08,19,11,37,22.90
2004,08,19,11,38,22.90
2004,08,19,11,39,22.90
2004,08,19,11,40,22.90
2004,08,19,11,41,22.80
2004,08,19,11,42,22.80
2004,08,19,11,43,22.80
2004,08,19,11,44,22.90
2004,08,19,11,45,23.10
2004,08,19,11,46,23.20
2004,08,19,11,47,23.20
2004,08,19,11,48,23.10
2004,08,19,11,49,23.10
2004,08,19,11,50,23.10
2004,08,19,11,51,23.10
2004,08,19,11,52,23.10
2004,08,19,11,53,23.20
2004,08,19,11,54,23.40
2004,08,19,11,55,23.50
2004,08,19,11,56,23.50
2004,08,19,11,57,23.60
2004,08,19,11,58,23.70
2004,08,19,11,59,23.70
2004,08,19,12,00,23.90
2004,08,19,12,01,24.10
2004,08,19,12,02,24.20
2004,08,19,12,03,24.30
2004,08,19,12,04,24.40
2004,08,19,12,05,24.40
2004,08,19,12,06,24.40
2004,08,19,12,07,24.50
2004,08,19,12,08,24.60
2004,08,19,12,09,24.60
2004,08,19,12,10,24.70
2004,08,19,12,11,24.80
2004,08,19,12,12,24.80
2004,08,19,12,13,24.70
2004,08,19,12,14,24.60
2004,08,19,12,15,24.40
2004,08,19,12,16,24.20
2004,08,19,12,17,24.00
2004,08,19,12,18,23.90
2004,08,19,12,19,24.00
2004,08,19,12,20,24.10
2004,08,19,12,21,24.10
2004,08,19,12,22,24.10
2004,08,19,12,23,24.10
2004,08,19,12,24,24.10
2004,08,19,12,25,24.10
2004,08,19,12,26,24.10
2004,08,19,12,27,24.10
2004,08,19,12,28,24.10
2004,08,19,12,29,24.10
2004,08,19,12,30,24.00
2004,08,19,12,31,23.90
2004,08,19,12,32,23.80
2004,08,19,12,33,23.70
2004,08,19,12,34,23.70
2004,08,19,12,35,23.80
2004,08,19,12,36,23.80
2004,08,19,12,37,23.70
2004,08,19,12,38,23.60
2004,08,19,12,39,23.40
2004,08,19,12,40,23.30
2004,08,19,12,41,23.30
2004,08,19,12,42,23.40
2004,08,19,12,43,23.50
2004,08,19,12,44,23.40
2004,08,19,12,45,23.30
2004,08,19,12,46,23.40
2004,08,19,12,47,23.50
2004,08,19,12,48,23.50
2004,08,19,12,49,23.50
2004,08,19,12,50,23.40
2004,08,19,12,51,23.40
2004,08,19,12,52,23.50
2004,08,19,12,53,23.60
2004,08,19,12,54,23.70
2004,08,19,12,55,23.70
2004,08,19,12,56,23.60
2004,08,19,12,57,23.50
2004,08,19,12,58,23.50
2004,08,19,12,59,23.50
2004,08,19,13,00,23.50
2004,08,19,13,01,23.40
2004,08,19,13,02,23.50
2004,08,19,13,03,23.80
2004,08,19,13,04,24.00
2004,08,19,13,05,24.10
2004,08,19,13,06,24.10
2004,08,19,13,07,24.10
2004,08,19,13,08,24.10
2004,08,19,13,09,24.10
2004,08,19,13,10,24.20
2004,08,19,13,11,24.20
2004,08,19,13,12,24.20
2004,08,19,13,13,24.20
2004,08,19,13,14,24.20
2004,08,19,13,15,24.10
2004,08,19,13,16,24.00
2004,08,19,13,17,24.00
2004,08,19,13,18,24.10
2004,08,19,13,19,24.30
2004,08,19,13,20,24.50
2004,08,19,13,21,24.40
2004,08,19,13,22,24.30
2004,08,19,13,23,24.20
2004,08,19,13,24,24.20
2004,08,19,13,25,24.30
2004,08,19,13,26,24.30
2004,08,19,13,27,24.20
2004,08,19,13,28,24.10
2004,08,19,13,29,24.10
2004,08,19,13,30,24.00
2004,08,19,13,31,23.90
2004,08,19,13,32,23.90
2004,08,19,13,33,24.10
2004,08,19,13,34,24.20
2004,08,19,13,35,24.30
2004,08,19,13,36,24.30
2004,08,19,13,37,24.20
2004,08,19,13,38,24.10
2004,08,19,13,39,24.00
2004,08,19,13,40,23.90
2004,08,19,13,41,23.80
2004,08,19,13,42,23.90
2004,08,19,13,43,23.90
2004,08,19,13,44,23.90
2004,08,19,13,45,23.90
2004,08,19,13,46,24.00
2004,08,19,13,47,24.00
2004,08,19,13,48,23.90
2004,08,19,13,49,23.90
2004,08,19,13,50,23.90
2004,08,19,13,51,23.90
2004,08,19,13,52,24.00
2004,08,19,13,53,24.10
2004,08,19,13,54,24.10
2004,08,19,13,55,24.10
2004,08,19,13,56,24.10
2004,08,19,13,57,24.10
2004,08,19,13,58,24.20
2004,08,19,13,59,24.20
2004,08,19,14,00,24.20
2004,08,19,14,01,24.20
2004,08,19,14,02,24.20
2004,08,19,14,03,24.30
2004,08,19,14,04,24.50
2004,08,19,14,05,24.50
2004,08,19,14,06,24.50
2004,08,19,14,07,24.60
2004,08,19,14,08,24.50
2004,08,19,14,09,24.40
2004,08,19,14,10,24.20
2004,08,19,14,11,24.10
2004,08,19,14,12,24.10
2004,08,19,14,13,24.10
2004,08,19,14,14,24.10
2004,08,19,14,15,24.20
2004,08,19,14,16,24.20
2004,08,19,14,17,24.40
2004,08,19,14,18,24.50
2004,08,19,14,19,24.50
2004,08,19,14,20,24.40
2004,08,19,14,21,24.40
2004,08,19,14,22,24.50
2004,08,19,14,23,24.50
2004,08,19,14,24,24.70
2004,08,19,14,25,24.70
2004,08,19,14,26,24.80
2004,08,19,14,27,24.80
2004,08,19,14,28,24.90
2004,08,19,14,29,24.90
2004,08,19,14,30,24.90
2004,08,19,14,31,25.00
2004,08,19,14,32,25.00
2004,08,19,14,33,25.10
2004,08,19,14,34,25.10
2004,08,19,14,35,24.90
2004,08,19,14,36,24.80
2004,08,19,14,37,24.70
2004,08,19,14,38,24.70
2004,08,19,14,39,24.70
2004,08,19,14,40,24.60
2004,08,19,14,41,24.60
2004,08,19,14,42,24.60
2004,08,19,14,43,24.70
2004,08,19,14,44,24.80
2004,08,19,14,45,24.90
2004,08,19,14,46,24.90
2004,08,19,14,47,24.90
2004,08,19,14,48,24.90
2004,08,19,14,49,24.90
2004,08,19,14,50,24.90
2004,08,19,14,51,25.00
2004,08,19,14,52,25.00
2004,08,19,14,53,25.20
2004,08,19,14,54,25.50
2004,08,19,14,55,25.60
2004,08,19,14,56,25.80
2004,08,19,14,57,26.00
2004,08,19,14,58,26.50
2004,08,19,14,59,26.90
2004,08,19,15,00,27.20
2004,08,19,15,01,27.40
2004,08,19,15,02,27.50
2004,08,19,15,03,27.50
2004,08,19,15,04,27.30
2004,08,19,15,05,27.50
2004,08,19,15,06,27.70
2004,08,19,15,07,28.00
2004,08,19,15,08,28.10
2004,08,19,15,09,28.30
2004,08,19,15,10,28.40
2004,08,19,15,11,28.40
2004,08,19,15,12,28.40
2004,08,19,15,13,28.30
2004,08,19,15,14,28.20
2004,08,19,15,15,28.20
2004,08,19,15,16,28.30
2004,08,19,15,17,28.20
2004,08,19,15,18,28.10
2004,08,19,15,19,28.00
2004,08,19,15,20,28.10
2004,08,19,15,21,28.10
2004,08,19,15,22,28.20
2004,08,19,15,23,28.10
2004,08,19,15,24,28.20
2004,08,19,15,25,28.40
2004,08,19,15,26,28.50
2004,08,19,15,27,28.30
2004,08,19,15,28,28.40
2004,08,19,15,29,28.40
2004,08,19,15,30,28.70
2004,08,19,15,31,28.80
2004,08,19,15,32,28.90
2004,08,19,15,33,29.10
2004,08,19,15,34,29.40
2004,08,19,15,35,29.50
2004,08,19,15,36,29.40
2004,08,19,15,37,29.30
2004,08,19,15,38,29.30
2004,08,19,15,39,29.30
2004,08,19,15,40,29.50
2004,08,19,15,41,29.50
2004,08,19,15,42,29.50
2004,08,19,15,43,29.60
2004,08,19,15,44,29.50
2004,08,19,15,45,29.40
2004,08,19,15,46,29.10
2004,08,19,15,47,29.10
2004,08,19,15,48,29.10
2004,08,19,15,49,29.10
2004,08,19,15,50,29.20
2004,08,19,15,51,29.20
2004,08,19,15,52,29.10
2004,08,19,15,53,29.10
2004,08,19,15,54,29.20
2004,08,19,15,55,29.30
2004,08,19,15,56,29.10
2004,08,19,15,57,29.20
2004,08,19,15,58,29.40
2004,08,19,15,59,29.40
2004,08,19,16,00,29.40
2004,08,19,16,01,29.40
2004,08,19,16,02,29.20
2004,08,19,16,03,29.20
2004,08,19,16,04,29.20
2004,08,19,16,05,29.00
2004,08,19,16,06,29.10
2004,08,19,16,07,29.20
2004,08,19,16,08,29.30
2004,08,19,16,09,29.40
2004,08,19,16,10,29.50
2004,08,19,16,11,29.50
2004,08,19,16,12,29.60
2004,08,19,16,13,29.80
2004,08,19,16,14,29.80
2004,08,19,16,15,29.80
2004,08,19,16,16,29.70
2004,08,19,16,17,29.60
2004,08,19,16,18,29.50
2004,08,19,16,19,29.50
2004,08,19,16,20,29.50
2004,08,19,16,21,29.20
2004,08,19,16,22,29.10
2004,08,19,16,23,28.90
2004,08,19,16,24,28.60
2004,08,19,16,25,28.40
2004,08,19,16,26,28.50
2004,08,19,16,27,28.80
2004,08,19,16,28,28.80
2004,08,19,16,29,28.90
2004,08,19,16,30,28.80
2004,08,19,16,31,28.80
2004,08,19,16,32,28.50
2004,08,19,16,33,28.20
2004,08,19,16,34,28.00
2004,08,19,16,35,27.70
2004,08,19,16,36,27.40
2004,08,19,16,37,27.30
2004,08,19,16,38,27.40
2004,08,19,16,39,27.40
2004,08,19,16,40,27.40
2004,08,19,16,41,27.40
2004,08,19,16,42,27.40
2004,08,19,16,43,27.50
2004,08,19,16,44,27.60
2004,08,19,16,45,27.50
2004,08,19,16,46,27.70
2004,08,19,16,47,27.80
2004,08,19,16,48,27.90
2004,08,19,16,49,27.80
2004,08,19,16,50,27.90
2004,08,19,16,51,28.10
2004,08,19,16,52,28.20
2004,08,19,16,53,28.40
2004,08,19,16,54,28.30
2004,08,19,16,55,28.10
2004,08,19,16,56,28.10
2004,08,19,16,57,27.90
2004,08,19,16,58,27.40
2004,08,19,16,59,27.10
2004,08,19,17,00,27.10
2004,08,19,17,01,27.20
2004,08,19,17,02,27.30
2004,08,19,17,03,27.30
2004,08,19,17,04,27.40
2004,08,19,17,05,27.50
2004,08,19,17,06,27.30
2004,08,19,17,07,27.10
2004,08,19,17,08,27.00
2004,08,19,17,09,27.00
2004,08,19,17,10,26.90
2004,08,19,17,11,27.00
2004,08,19,17,12,26.80
2004,08,19,17,13,26.90
2004,08,19,17,14,26.90
2004,08,19,17,15,26.90
2004,08,19,17,16,26.60
2004,08,19,17,17,26.40
2004,08,19,17,18,26.40
2004,08,19,17,19,26.20